EW7329 Weather Reports


time (UTC)temp
C
wind
direction
speed
KPH
gust
KPH
rain 1hr
cm
rain 24hr
cm
rain mn
cm
humidity
%
barometer
mb
20260507090105 20 192 4.8 12.9 0.00 0.00 0.00 55 1004.6
20260507084558 18 113 3.2 12.9 0.00 0.00 0.00 59 1004.6
20260507083048 17 71 3.2 9.7 0.00 0.00 0.00 67 1004.6
20260507081544 16 5 1.6 6.4 0.00 0.00 0.00 69 1004.4
20260507080040 16 136 1.6 6.4 0.00 0.00 0.00 73 1004.5
20260507074537 16 146 1.6 3.2 0.00 0.00 0.00 75 1004.5
20260507073034 15 146 0.0 3.2 0.00 0.00 0.00 76 1004.3
20260507071534 15 134 0.0 3.2 0.00 0.00 0.00 78 1004.2
20260507070041 14 126 1.6 4.8 0.00 0.00 0.00 80 1004.0
20260507064528 13 5 0.0 3.2 0.00 0.00 0.00 82 1003.8
20260507063028 13 5 0.0 4.8 0.00 0.00 0.00 82 1003.9
20260507061526 13 344 0.0 3.2 0.00 0.00 0.00 82 1003.9
20260507060030 13 327 0.0 3.2 0.00 0.00 0.00 82 1003.7
20260507054523 12 306 0.0 3.2 0.00 0.00 0.00 82 1003.6
20260507053022 12 306 0.0 1.6 0.00 0.00 0.00 81 1003.5
20260507051520 12 125 0.0 1.6 0.00 0.00 0.00 81 1003.5
20260507050026 12 355 0.0 3.2 0.00 0.00 0.00 80 1003.2
20260507044516 13 355 1.6 4.8 0.00 0.00 0.00 79 1003.0
20260507043014 13 348 0.0 3.2 0.00 0.00 0.00 78 1002.9
20260507041513 13 347 0.0 6.4 0.00 0.00 0.00 77 1002.8
20260507040010 13 344 1.6 4.8 0.00 0.00 0.00 77 1002.8
20260507034510 13 344 0.0 6.4 0.00 0.00 0.00 76 1002.5
20260507033010 13 171 0.0 9.7 0.00 0.00 0.00 77 1002.6
20260507031506 13 144 6.4 11.3 0.00 0.00 0.00 76 1002.2
20260507030005 13 130 4.8 9.7 0.00 0.00 0.00 75 1002.4
20260507024507 14 162 4.8 16.1 0.00 0.00 0.00 74 1002.3
20260507023002 13 134 9.7 16.1 0.00 0.00 0.00 74 1002.2
20260507021601 13 148 1.6 6.4 0.00 0.00 0.00 75 1002.4
20260507014605 14 160 3.2 9.7 0.00 0.00 0.00 76 1002.5
20260507013102 14 184 4.8 11.3 0.00 0.00 0.00 76 1002.4
20260507011558 14 168 8.0 11.3 0.00 0.00 0.00 76 1002.4
20260507010053 14 136 4.8 11.3 0.00 0.00 0.00 75 1002.4
20260507004552 15 168 8.0 16.1 0.00 0.00 0.00 75 1002.4
20260507003050 15 175 4.8 16.1 0.00 0.00 0.00 74 1002.3
20260507001549 15 205 4.8 16.1 0.00 0.00 0.00 74 1002.3
20260507000048 15 213 9.7 19.3 0.00 0.00 0.00 73 1002.4
20260506234553 15 192 8.0 16.1 0.00 0.00 0.00 74 1002.4
20260506233049 15 179 9.7 19.3 0.00 0.00 0.00 75 1002.3
20260506231544 15 189 6.4 14.5 0.00 0.00 0.00 74 1002.5
20260506230035 15 204 3.2 8.0 0.00 0.00 0.00 74 1002.7
20260506224534 15 184 0.0 8.0 0.00 0.00 0.00 74 1002.6
20260506223029 15 242 3.2 8.0 0.00 0.00 0.00 74 1002.4
20260506221527 15 192 3.2 8.0 0.00 0.00 0.00 75 1002.3
20260506220025 15 199 3.2 6.4 0.00 0.00 0.00 75 1002.1
20260506214525 15 246 3.2 6.4 0.00 0.00 0.00 75 1002.0
20260506213024 15 241 4.8 11.3 0.00 0.00 0.00 75 1002.0
20260506211525 15 232 1.6 6.4 0.00 0.00 0.00 76 1002.1
20260506210028 15 175 0.0 6.4 0.00 0.00 0.00 75 1001.9
20260506204522 15 190 3.2 6.4 0.00 0.00 0.00 75 1001.9
20260506203032 15 198 3.2 8.0 0.00 0.00 0.00 74 1001.8
20260506201521 15 195 3.2 9.7 0.00 0.00 0.00 73 1001.8
20260506200019 15 174 6.4 11.3 0.00 0.00 0.00 73 1001.8
20260506194520 15 182 3.2 9.7 0.00 0.00 0.00 73 1001.7
20260506193019 15 161 3.2 6.4 0.00 0.00 0.00 73 1001.5
20260506191521 15 148 1.6 8.0 0.00 0.00 0.00 72 1001.4
20260506190018 16 169 1.6 11.3 0.00 0.00 0.00 72 1001.2
20260506184518 16 180 6.4 11.3 0.00 0.00 0.00 71 1000.9
20260506183017 16 161 4.8 12.9 0.00 0.00 0.00 70 1000.7
20260506181516 16 153 6.4 14.5 0.00 0.00 0.00 69 1000.4
20260506180019 16 166 4.8 19.3 0.00 0.00 0.00 70 1000.2
20260506174519 16 178 6.4 20.9 0.00 0.00 0.00 69 1000.2
20260506173018 17 190 11.3 22.5 0.00 0.00 0.00 69 1000.2
20260506171515 17 169 12.9 25.7 0.00 0.00 0.00 68 1000.1
20260506170013 17 185 9.7 20.9 0.00 0.00 0.00 70 1000.2
20260506164510 18 178 8.0 22.5 0.00 0.00 0.00 67 1000.4
20260506163008 18 130 11.3 24.1 0.00 0.00 0.00 67 1000.6
20260506161507 18 166 12.9 30.6 0.00 0.00 0.00 66 1000.8
20260506160006 18 173 14.5 37.0 0.00 0.00 0.00 66 1000.8
20260506154505 18 180 8.0 25.7 0.00 0.00 0.00 66 1000.8
20260506153004 18 222 14.5 27.4 0.00 0.00 0.00 64 1000.9
20260506151503 18 152 20.9 35.4 0.00 0.00 0.00 64 1000.9
20260506150002 18 180 17.7 30.6 0.00 0.00 0.00 62 1000.9
20260506144503 19 183 16.1 41.8 0.00 0.00 0.00 62 1000.8
20260506143002 18 225 22.5 30.6 0.00 0.00 0.00 63 1000.9
20260506141600 20 178 19.3 41.8 0.00 0.00 0.00 60 1000.9
20260506140059 20 181 16.1 41.8 0.00 0.00 0.00 60 1000.8
20260506134557 20 254 19.3 43.5 0.00 0.00 0.00 58 1001.2
20260506133057 20 220 20.9 37.0 0.00 0.00 0.00 56 1001.1
20260506131602 21 278 14.5 32.2 0.00 0.00 0.00 55 1000.9
20260506130126 21 170 17.7 33.8 0.00 0.00 0.00 56 1001.0
20260506124559 21 224 20.9 38.6 0.00 0.00 0.00 54 1001.2
20260506123054 21 165 14.5 27.4 0.00 0.00 0.00 53 1000.9
20260506121555 22 167 14.5 30.6 0.00 0.00 0.00 51 1001.2
20260506120100 22 138 14.5 25.7 0.00 0.00 0.00 53 1001.2
20260506114551 22 180 9.7 30.6 0.00 0.00 0.00 55 1001.2
20260506113055 22 193 11.3 30.6 0.00 0.00 0.00 55 1001.3
20260506111548 21 186 9.7 22.5 0.00 0.00 0.00 56 1001.6
20260506110054 21 184 12.9 24.1 0.00 0.00 0.00 54 1001.9
20260506104552 20 142 11.3 22.5 0.00 0.00 0.00 55 1002.1
20260506103050 20 170 8.0 19.3 0.00 0.00 0.00 57 1002.1
20260506101555 20 176 12.9 22.5 0.00 0.00 0.00 57 1002.1
20260506100101 18 171 12.9 19.3 0.00 0.00 0.00 61 1002.4
20260506094542 18 180 12.9 22.5 0.00 0.00 0.00 60 1002.4
20260506093045 19 194 14.5 25.7 0.00 0.00 0.00 57 1002.3
20260506091540 21 158 12.9 27.4 0.00 0.00 0.00 52 1001.9